Showing default

CELTEE 1, 41850

Orbit data source: Space-Track

CELTEE 1, 41850 is a payload satellite owned by AFRL/RV (US) in SSO that was launched on Fri, 11 Nov 2016 UTC via an ATLAS V 401 launch vehicle from the Air Force Western Test Range (AFWTR). Payload-class satellites include a variety of spacecraft equipped with specific instruments for various scientific and technological missions. These include communications satellites like Starlink; space stations such as the ISS; scientific satellites like the Hubble; Earth observation satellites from companies like Planet Labs, Umbra, and HawkEye 360; GPS; miniature CubeSats for education and research; and military/defense satellites.

Loading next visibility...
Identifier
41850, 2016-067C
Orbit
SSO
Country
Flag of USUS
Related business
Manufacturer
M42 Tech
Mission
Operational Defense Technology
Bus & Motor
CUBESAT 1U, Unknown motor
Mass
1 kg wet, 1 kg dry
Launch date (UTC)
2016-11-11 (9 years ago)
Launch vehicle
ATLAS V 401
Launch site
Air Force Western Test Range (AFWTR)
Object type
Payload
Rocket body
Debris
Shape & HBR
Box, 0.1 m
Radar Cross Section
0.015 m², Small (<0.1 m²)

Expand to show TLE details & history
Last TLE update: 17 hours ago

TLE from 17 hours ago
0 CELTEE 1
1 41850U 16067C   26033.42431865  .00006628  00000-0  32896-3 0  9998
2 41850  98.0847 250.7868 0001487  40.7522 319.3821 15.18077363505426
Epoch: 2026-02-02T10:11Z
TLE epoch observation values (Epoch: 2026-02-02T10:11:01.131Z)
Latitude
-0.00003°
Longitude
-34.58771°
Altitude
513.941 km
Speed
7.607 km/s
True Right ascension
16h 43m 08s
True Declination
0° 00' 00"
Sunlit
Object was in daylight at epoch
Visualization orbit readout
Latitude
Unknown
Longitude
Unknown
Altitude
Unknown
Speed
Unknown
Apparent Right ascension
Unknown
Apparent Declination
Unknown
Sunlit
N/A
Visualization observer readout
Local Sidereal Time
05:03:18
Azimuth
Unknown
Elevation
Unknown
Doppler factor
Unknown
Orbital elements
Apogee altitude
509.675 km
Perigee altitude
507.626 km
Semi-major axis
6,886.787 km
Eccentricity
0.00015
Inclination
98.0847°
RAAN
250.7868°
Arg. of periapsis
40.7522°
True anomaly
319.37101°
Mean anomaly
319.3821°
Eccentric anomaly
319.37655°
Mean motion
3.79768 °/min
Orbital period
94.79 mins
BSTAR
0.00032896
Loading maneuver chart data...
Computing Atmospheric mass density...
Loading historical data...
Loading historical data...
Loading historical data...
Loading historical data...
Loading historical data...
Loading historical data...
Loading historical data...

Documentation

Showing up to 5 results
|